星链-3878 (STARLINK-3878 )

导读

STARLINK-3878是美国SpaceX公司星链星座中的一颗低地球轨道通信卫星,于2022年5月6日发射入轨,归属星链卫星互联网项目。该项目旨在为全球偏远地区提供低延迟高速宽带服务,这颗卫星属于星链组网阶段发射的卫星,参与构建全球覆盖的低轨卫星通信网络,助力星链实现全球无缝互联的目标,星链项目目前已发展为全球规模最大的低轨卫星星座。

基本信息
目录编号:
52479
目录名称:
STARLINK-3878
国际标识:
2022-049AE
轨道中心:
EARTH
卫星名称:
星链-3878
卫星全名:
星链-3878 (STARLINK-3878 )
卫星状态:
在轨 (已飞行1582 天)
发射日期:
2022-05-06 UTC
国别 :
美国 (US)
星等 :
--
轨道信息
数据来源 国际轨道数据
星历时间: 2026-09-04T04:00:02+0800
8小时前
查看轨道信息
半长轴: 6848.833km
偏心率: 0.000101
轨道倾角: 53.160°
近地点辐角 73.909°
升交点赤经 327.480°
平近点角 266.409°
近地点: 470.004km
远地点: 471.388km
周期: 94.012分钟
每日圈数: 15.317149
详细信息
固有亮度:
5
最大亮度:
2.5
卫星平台:
Starlink v1.5
覆盖范围:
全球
运营商:
太空探索技术公司
运营商所在国:
美国
制造商(研发单位):
太空探索技术公司
制造商所在国:
美国
使用方式:
暂无
卫星简介
星链(Starlink)计划是由太空探索技术公司(SpaceX)提出的一个巨型低轨卫星互联网星座项目,计划在2019年至2024年间在太空搭建由约1.2万颗卫星组成的“星链”网络,其中1584颗将部署在地球上空550千米处的近地轨道,并从2020年开始工作。该卫星仍在工作。
2D轨道图
3D轨道图
轨道高度分析图
轨道倾角分析图
轨道综合分析图
查看轨道综合分析图
交会数据列表
事件ID 空间交会对象 最接近时刻(TCA) 交会距离 交会风险概率(CRP) 交会风险指数(CRI) 操作
CDM_260830-192805-247906-658521
2026-08-30T
19:28:19+0000
0.874 km
远距离
2.929873E-5 中风险 0.64
CDM_260905-022004-811705-247921
2026-09-05T
02:20:11+0000
1.069 km
极远距离
1.336145E-5 中风险 0.58
CDM_260905-123105-247906-543421
2026-09-05T
12:31:33+0000
1.791 km
极远距离
3.718807E-6 低风险 0.46
CDM_260830-175305-247906-219721
2026-08-30T
17:53:00+0000
1.536 km
极远距离
1.985044E-6 低风险 0.41
CDM_260904-191605-247906-798221
2026-09-04T
19:16:14+0000
2.608 km
极远距离
1.251972E-6 低风险 0.37
CDM_260905-061504-811705-247921
2026-09-05T
06:15:04+0000
2.971 km
极远距离
9.241134E-7 极低风险 0.34